User: anonymous   Login
Location: Unspecified
(0.0000°N, 0.0000°E)
Time: 11:20:41
(UTC+01:00)
Language:

Centaur AC-64 - Orbit

View from above orbital plane
View from above orbital plane
View from above satellite
View from above satellite

Ground track
Ground track

The orbit data is extracted from the following two-line orbital elements,

1 15874U 85055B   15026.39857544  .00005471  00000-0  17061-2 0  6493
2 15874 023.0376 230.5332 6609487 046.9245 080.2486 03.15276832302703
Epoch (UTC): 26 January 2015 09:33:56
Eccentricity: 0.6609487
inclination: 23.0376°
perigee height: 283 km
apogee height: 26252 km
right ascension of ascending node: 230.5332°
argument of perigee: 46.9245°
revolutions per day: 3.15276832
mean anomaly at epoch: 80.2486°
orbit number at epoch: 30270

The dashed part of the orbit path shows where the satellite is in the earth's shadow,  

DLR